Weather Roundup
Issued by NWS Chicago, IL

Home | Current Version | Previous Version | Graphics & Text | Print | Product List | Glossary On
Versions: 1 2 3 4 5 6 7 8 9 10 11 12 13 14 15 16 17 18 19 20 21 22 23 24 25 26 27 28 29 30 31 32 33 34 35 36 37 38 39 40 41 42 43 44 45 46 47 48 49 50
000
NZUS59 KLOT 290958
HRRLOT

CHICAGO AREA WEATHER ROUNDUP
NATIONAL WEATHER SERVICE CHICAGO/ROMEOVILLE IL
500 AM CDT FRI AUG 29 2014

NOTE: "FAIR" INDICATES FEW OR NO CLOUDS BELOW 12,000 FEET WITH NO
SIGNIFICANT WEATHER AND/OR OBSTRUCTIONS TO VISIBILITY.

* THESE STATIONS ARE NOT UNDER NWS QUALITY CONTROL. THEY ALSO MAY NOT
  REPORT WEATHER SUCH AS PRECIPITATION OR FOG.

ILZ005-006-012>014-019>023-291100-
NORTHEAST ILLINOIS

CITY           SKY/WX    TMP DP  RH WIND       PRES   REMARKS
OHARE          CLOUDY    71  63  75 S6        29.97S
MIDWAY         CLOUDY    73  66  78 S9        29.98R
AURORA         CLOUDY    69  66  90 SE6       29.97S FOG
WAUKEGAN       CLOUDY    71  65  81 SE6       29.97S
DUPAGE AIRPORT CLOUDY    70  66  87 SE6       29.97S
WHEELING       CLOUDY    72  65  78 S7        29.98F
NORTHERLY IS     N/A     71  63  75 SE7         N/A
$$

WIZ051-052-058>065-066-070>072-291100-
SOUTHEAST WISCONSIN

CITY           SKY/WX    TMP DP  RH WIND       PRES   REMARKS
MILWAUKEE      MOCLDY    70  66  87 S8        29.97S
KENOSHA*       MOCLDY    71  66  84 S7        29.98S
RACINE*        MOCLDY    71  66  84 S14       29.99S
$$

INZ001>003-010>013-019-020-291100-
NORTHWEST INDIANA

CITY           SKY/WX    TMP DP  RH WIND       PRES   REMARKS
GARY*          MOCLDY    72  64  78 SE9       29.99S
MICHIGAN CITY* NOT AVBL
RENSSELAER*    NOT AVBL
VALPARAISO     CLOUDY    68  62  81 SE6       30.02S
$$

LMZ740>746-291100-
SOUTHERN LAKE MICHIGAN

STATION/POSITION TIME  SKY/WX   TEMP WIND        PRES    VSBY
                                AIR  DIR/SP/G
                 (UTC)          (F)  (DEG/KT/KT) (MB)    (MI)
HARRISON CRIB    0900            72  170/ 17/ 19   N/A
BURNHAM HARBOR   0900            71  160/  7/ 11   N/A
CALUMET HARBOR   0900            72  160/  7/ 12 1014.0F
BURNS HARBOR     NOT AVBL
MICHIGAN CITY    0900            70  130/ 14/ 17   N/A
$$

ABBREVIATIONS USED IN REMARKS
   TC - TEMPERATURE IN CELSIUS
  WCI - WIND CHILL INDEX
   HX - HEAT INDEX
  VSB - VISIBILITY
$$



USA.gov is the U.S. government's official web portal to all federal, state and local government web resources and services.